GFSSE_500_spd_021.txt.gz
Wind_Speed
34 36 37 38 37 34 33 32 32 33 34 34 34 34 34 33 34 34 34 33 33 32 30 29 31 31 28 28 28 26 24 23 24 26 26 22 21 22 24 25 21 21 20
33 36 37 38 37 35 35 34 34 35 36 36 37 37 36 35 35 34 35 34 34 34 32 30 31 32 31 28 28 27 26 26 26 26 26 26 23 23 24 26 25 23 21
32 36 36 35 34 34 34 34 34 34 35 35 36 36 39 39 37 36 35 35 35 35 35 33 32 33 32 29 29 28 28 26 28 29 28 28 26 24 24 26 26 27 25
33 37 37 37 35 34 33 33 34 34 35 34 33 33 32 36 37 36 36 36 36 36 36 36 35 33 34 31 31 31 30 29 29 29 31 29 29 27 26 27 28 28 26
34 37 39 38 35 36 37 37 38 37 34 31 30 28 32 32 34 37 36 36 36 37 37 38 37 34 35 34 34 33 33 32 31 31 32 33 32 31 29 28 30 30 29
34 37 38 36 36 36 35 38 38 37 35 34 32 33 31 31 35 35 35 36 35 36 36 37 38 36 36 36 35 35 34 35 34 34 35 35 36 35 33 31 32 31 31
33 35 37 36 38 39 37 36 35 33 34 34 33 32 28 29 28 30 31 34 35 37 35 35 36 36 36 36 36 38 37 37 37 38 38 38 37 38 37 35 34 34 32
29 32 38 37 40 36 36 35 34 34 34 37 37 37 37 35 34 35 34 34 34 33 34 34 35 37 39 40 40 40 40 39 40 40 41 41 40 40 39 38 38 37 36
27 31 36 38 38 38 36 36 35 36 37 38 40 40 40 39 38 37 37 36 36 36 36 35 34 36 38 40 40 41 41 41 40 41 41 40 40 41 41 41 41 40 38
27 31 34 36 36 37 38 36 35 37 37 39 42 42 40 38 37 38 38 37 37 37 38 36 36 35 36 37 40 41 41 41 40 40 40 38 38 40 41 42 43 41 41
29 29 30 35 36 38 38 36 38 40 40 39 38 37 37 36 34 34 34 34 34 34 34 34 33 32 31 33 37 41 41 41 41 40 42 42 41 40 39 41 42 42 41
30 25 27 33 36 41 39 39 40 37 37 37 37 34 32 32 33 32 32 33 33 31 30 31 32 34 35 34 36 40 42 41 39 40 45 46 44 42 40 40 40 41 41
30 23 27 31 35 42 40 38 34 34 36 36 31 28 29 30 32 31 32 32 32 33 32 30 32 33 33 33 35 35 39 41 41 42 42 42 44 44 44 42 41 40 42
31 25 27 31 35 37 36 34 34 33 34 32 29 28 29 30 32 31 30 27 29 29 30 32 34 34 33 34 34 34 35 37 41 42 42 41 44 45 46 45 43 41 41
28 26 21 24 28 32 32 34 34 34 35 33 29 29 29 31 31 30 29 29 29 28 26 29 33 36 34 32 31 31 33 35 37 39 42 45 44 46 48 49 46 44 42
27 22 19 20 26 31 33 34 34 35 37 34 30 30 29 32 30 28 28 29 30 28 29 30 30 29 29 29 30 31 32 35 37 38 40 44 49 49 48 49 48 47 44
28 20 18 20 26 31 35 35 35 36 35 32 31 30 32 31 30 31 33 32 31 29 28 30 28 27 28 28 29 30 31 32 33 35 40 40 46 49 49 49 48 46 43
27 24 21 23 26 31 36 36 35 37 33 31 31 31 31 29 31 30 30 30 26 27 30 29 27 27 29 29 29 30 30 29 29 30 33 37 42 46 46 48 46 42 41
26 28 25 24 31 31 36 35 35 34 31 31 30 32 31 31 30 28 28 28 27 28 30 29 27 27 27 27 28 29 30 29 30 30 33 35 40 44 44 46 44 39 39
28 24 23 31 34 30 34 34 34 33 31 31 31 33 31 31 28 31 32 33 32 31 30 29 24 24 23 23 23 25 27 30 31 31 32 35 39 44 46 47 48 53 29
23 21 27 31 29 30 32 33 33 31 31 31 32 33 31 32 33 34 30 31 32 29 29 21 19 18 18 17 17 21 25 28 32 31 30 33 38 44 46 47 47 44 42
20 24 25 25 27 28 31 32 31 30 30 32 32 30 32 33 32 30 28 25 23 25 14 16 14 13 15 17 19 19 23 27 29 28 29 32 35 39 39 40 44 52 33
18 19 20 23 25 28 31 29 27 28 29 29 27 31 31 31 30 27 25 20 12 12 13 11 10 8 7 11 18 19 22 24 25 25 27 30 33 36 36 38 36 31 35
17 18 20 23 24 27 26 25 26 27 27 25 28 28 30 26 24 23 15 11 11 10 8 7 7 7 10 12 15 19 22 23 25 25 26 29 31 34 35 34 30 29 28
16 19 20 20 22 24 23 23 24 27 23 27 27 27 25 23 22 13 10 8 7 5 5 13 14 13 14 17 19 21 24 28 26 24 26 29 30 30 31 32 29 29 23
14 17 19 19 21 21 22 22 24 24 23 22 24 22 23 20 14 9 6 4 3 13 17 15 14 12 12 17 22 23 23 24 23 24 28 28 27 26 26 30 34 22 26

GFSSE_500_spd_024.txt.gz
Wind_Speed
32 34 37 37 38 38 39 40 38 36 35 35 34 35 35 34 33 31 31 31 32 34 34 35 34 34 33 32 33 32 31 29 26 25 26 26 23 22 23 23 24 22 21
32 37 38 38 38 38 39 37 35 34 34 34 34 33 34 36 37 35 35 34 33 34 34 35 35 35 34 35 33 34 33 31 28 26 25 26 26 24 23 23 24 25 23
34 38 40 40 39 38 36 32 33 35 35 36 37 38 38 36 36 35 35 36 36 36 36 35 34 35 36 36 34 35 35 33 29 28 27 27 26 25 24 24 24 26 26
37 38 40 42 41 37 35 34 35 35 35 35 36 35 34 35 36 35 34 35 35 36 37 37 36 35 36 38 37 35 35 34 30 29 28 28 29 27 26 26 26 27 28
29 34 39 43 42 37 36 38 39 37 35 33 31 30 30 31 35 36 33 33 34 36 36 39 38 38 36 38 39 37 35 34 32 31 30 29 29 30 29 29 28 28 27
35 37 40 43 42 38 37 39 40 38 36 34 34 34 33 29 25 24 24 28 29 31 34 34 36 36 37 37 39 39 36 35 35 33 32 32 32 30 33 31 30 30 30
35 34 38 42 41 38 37 38 38 38 37 36 36 37 38 36 33 31 28 26 24 26 28 31 34 35 35 35 36 38 36 35 35 34 34 34 34 34 34 35 33 33 31
34 32 35 38 39 38 39 39 35 33 34 37 38 39 42 41 39 37 35 33 32 31 28 27 30 34 33 34 36 37 38 37 36 35 36 36 36 37 37 37 37 36 34
35 32 34 37 40 39 40 39 36 35 36 39 39 39 38 36 36 37 37 35 35 34 34 33 31 31 33 35 35 38 39 38 38 38 39 38 38 40 40 39 40 39 38
37 33 33 35 37 39 39 39 38 39 40 37 35 34 33 34 34 33 33 32 33 33 35 34 35 36 35 36 37 38 39 39 40 40 41 42 41 42 43 42 41 41 41
36 32 34 36 35 37 39 39 40 42 40 39 35 33 35 35 33 31 30 31 31 32 32 32 33 34 36 36 36 37 38 39 40 42 44 44 42 43 43 44 42 41 41
34 32 35 37 36 35 38 40 42 42 38 37 35 33 32 32 30 30 30 30 29 30 31 31 31 31 34 34 35 34 34 34 36 39 43 42 44 43 43 42 42 40 40
31 33 36 37 41 37 38 37 36 34 35 35 35 33 32 30 31 29 31 30 29 29 27 26 30 32 31 35 37 37 37 35 37 42 42 42 44 44 44 42 41 40 38
34 35 37 39 37 37 30 28 31 34 36 35 35 37 32 31 31 30 30 28 29 29 30 29 28 30 31 33 35 35 36 37 37 39 44 43 42 44 46 45 43 41 39
36 35 36 37 37 32 28 27 31 35 37 37 37 35 32 31 31 32 29 28 27 28 29 28 27 26 27 30 33 34 34 36 38 38 40 44 45 44 43 45 45 43 41
34 36 38 38 34 29 26 27 32 35 38 38 36 33 31 30 32 29 28 29 30 29 29 30 30 29 29 30 31 31 32 33 36 37 40 42 44 43 43 43 45 46 43
33 35 36 37 36 31 31 32 33 36 38 38 36 33 32 30 32 29 27 26 26 26 28 27 28 29 29 27 28 29 29 30 32 35 38 41 44 47 46 43 44 46 47
29 32 34 36 34 30 35 42 36 36 38 37 37 34 32 30 31 29 28 28 26 25 26 27 27 28 27 26 25 25 26 27 30 33 35 38 41 44 47 48 45 46 47
28 31 32 33 34 30 39 33 33 35 37 37 36 34 32 31 30 30 30 29 30 29 29 30 30 29 27 25 25 27 30 31 30 33 35 38 41 43 45 46 47 47 47
32 30 32 33 36 31 33 37 36 35 37 36 35 33 32 31 31 32 32 30 30 28 28 30 31 27 27 27 28 30 30 31 32 32 34 36 38 44 45 49 50 49 47
32 29 30 34 29 31 35 35 37 35 36 34 33 32 31 30 33 32 31 30 28 26 26 27 36 28 21 23 26 28 29 30 31 32 33 34 34 36 42 44 45 49 46
30 30 31 29 30 32 32 34 34 34 33 32 32 28 31 32 32 30 28 28 26 22 19 15 13 14 18 21 22 23 24 26 29 32 34 32 31 34 39 42 43 47 52
28 31 30 28 29 30 31 32 30 30 29 31 28 30 30 31 28 26 25 24 15 14 15 13 12 11 14 16 19 19 20 23 26 29 28 27 29 33 35 36 38 44 47
26 31 29 26 26 26 27 26 28 28 28 29 26 28 29 27 24 23 15 13 14 13 12 9 7 7 8 8 11 17 15 19 22 23 24 26 29 30 30 31 35 36 37
28 27 24 25 24 23 23 24 26 24 26 24 25 26 29 26 21 13 11 11 11 10 5 7 7 8 8 7 11 15 18 21 21 22 23 25 26 27 28 30 33 31 32
27 23 22 22 21 21 20 23 20 22 21 22 24 26 22 20 13 11 10 6 1 9 12 12 9 8 8 10 13 16 20 21 22 22 23 24 27 29 31 32 31 30 28

GFSSE_500_spd_030.txt.gz
Wind_Speed
36 38 39 37 37 36 36 34 34 33 30 28 28 27 29 30 30 32 31 31 32 33 32 33 34 34 33 32 32 33 32 32 29 29 27 28 29 27 25 23 22 21 21
32 35 38 38 38 39 37 36 35 35 34 31 30 30 32 33 33 30 29 30 30 31 32 34 36 37 36 35 34 34 34 33 32 30 30 31 31 28 26 23 23 22 20
32 35 35 37 38 40 39 37 35 32 30 30 32 33 35 34 32 31 30 32 31 28 29 34 35 36 38 36 36 35 34 34 33 32 32 32 31 31 26 25 23 22 22
32 34 36 37 40 43 42 37 33 30 29 31 34 33 32 34 35 35 34 32 29 28 26 28 33 34 36 36 37 36 35 33 34 33 34 33 32 31 29 27 25 23 22
31 34 36 37 39 42 43 36 32 31 29 33 32 32 33 35 35 37 36 35 33 32 28 26 27 31 33 35 35 36 35 34 34 35 35 34 33 32 29 28 26 25 24
35 34 37 37 39 41 44 38 32 31 30 34 31 33 36 38 37 37 37 37 37 37 33 30 25 27 30 32 34 35 35 34 34 35 36 36 35 31 31 32 29 26 26
42 33 34 36 38 42 45 39 33 31 32 32 31 34 38 40 40 40 38 36 36 36 34 32 32 27 25 28 29 33 32 33 34 36 35 38 36 33 31 31 31 30 28
43 43 34 36 39 42 43 34 32 32 36 31 32 36 39 40 41 40 38 36 32 31 30 30 29 29 28 28 28 29 31 30 33 36 37 36 37 33 33 33 32 31 31
41 45 33 34 39 42 39 31 32 32 36 33 35 37 39 42 41 37 36 36 34 31 28 27 28 28 26 28 30 30 31 32 31 34 36 37 37 35 33 34 32 31 32
52 53 56 33 39 44 41 33 34 34 35 35 37 37 41 40 37 36 36 36 36 30 27 27 27 28 28 27 28 32 33 32 34 30 32 36 37 35 35 34 33 33 32
39 48 56 54 30 40 42 37 35 37 38 36 37 37 38 34 36 37 36 37 31 29 30 30 29 31 29 28 27 29 32 33 34 37 33 33 34 33 36 35 35 34 33
36 36 49 52 40 33 40 37 35 37 39 37 36 34 37 35 35 37 37 34 31 32 30 30 33 32 29 28 28 29 28 33 35 37 41 33 33 32 36 36 35 36 35
41 38 36 52 47 38 40 35 33 36 37 37 37 37 41 40 39 34 36 32 30 28 33 34 32 29 27 28 28 25 28 31 34 37 39 42 36 34 37 36 37 38 38
41 38 32 47 52 43 38 35 29 33 34 35 37 40 42 39 44 37 38 36 34 35 35 30 27 27 28 26 28 29 29 30 30 36 37 35 35 36 40 39 39 39 39
41 40 37 43 51 43 36 36 30 32 33 34 37 43 50 42 41 39 38 35 35 36 34 29 29 28 28 29 28 28 29 30 31 32 33 34 33 34 36 40 41 41 41
43 42 39 44 49 37 32 33 34 34 37 37 39 41 48 52 42 41 40 39 36 36 35 33 31 29 25 27 29 29 27 28 31 30 31 35 36 36 32 35 38 41 42
44 41 39 43 41 31 31 29 34 35 40 40 40 43 42 41 45 43 42 41 40 36 33 33 31 31 28 26 26 25 27 29 29 31 33 34 37 38 37 35 38 40 41
42 39 40 39 34 27 28 27 32 35 39 41 38 43 45 45 46 44 43 43 42 36 34 35 33 33 32 32 29 27 27 30 32 31 33 36 37 37 39 40 38 41 40
42 37 39 35 31 25 28 26 29 36 38 39 40 43 45 45 47 45 44 45 40 39 36 33 32 29 30 31 28 29 30 29 30 30 31 33 38 37 37 37 37 38 40
39 37 35 31 30 26 27 27 30 33 35 36 42 45 46 46 45 43 43 42 41 39 37 32 30 31 31 30 31 28 30 28 29 29 29 31 34 35 35 36 37 39 39
33 37 32 28 27 28 26 27 30 35 37 40 41 43 44 45 45 43 45 41 40 38 36 32 34 33 32 30 27 27 29 29 26 28 29 29 29 33 33 33 34 37 38
30 34 29 28 26 26 27 30 34 38 39 38 39 40 40 42 44 44 40 39 41 38 34 30 27 23 22 22 25 25 27 32 27 27 30 30 31 29 31 32 35 34 37
29 26 28 26 25 25 29 34 38 36 36 35 37 38 37 39 40 38 37 35 32 25 24 22 22 21 19 18 19 20 19 22 28 28 28 29 30 30 28 31 32 35 36
25 23 24 22 24 26 30 37 35 34 35 34 34 36 36 31 32 30 30 24 23 22 21 20 17 15 14 13 14 15 18 19 20 23 24 26 27 29 30 30 30 31 32
22 20 19 20 22 28 32 33 31 33 28 30 32 30 32 30 29 27 22 21 18 14 11 7 5 6 6 7 8 11 14 16 19 18 20 23 24 27 29 27 28 30 30
17 16 18 20 25 30 30 27 26 26 27 28 26 27 28 28 23 18 17 13 8 5 5 4 1 2 2 3 3 5 9 19 11 7 20 21 22 23 26 26 24 26 28

GFSSE_500_spd_033.txt.gz
Wind_Speed
30 30 33 34 34 30 30 33 32 29 26 23 21 21 20 21 23 25 25 23 23 26 28 29 30 32 32 31 30 31 31 30 29 28 27 29 30 30 27 27 26 24 22
30 29 31 34 34 34 32 32 31 28 26 23 22 22 21 23 24 25 26 26 26 27 27 28 30 32 33 33 32 32 32 33 32 30 29 31 32 31 30 30 28 25 22
30 33 35 37 37 37 35 34 32 27 25 23 23 25 25 24 23 25 27 28 30 29 28 27 27 29 32 34 33 34 33 33 33 32 32 31 32 33 33 32 27 26 25
33 35 36 36 36 35 37 35 34 27 23 22 23 25 25 24 25 26 27 28 31 30 29 29 29 30 29 31 33 33 34 33 32 33 33 32 32 33 34 33 28 26 26
35 34 37 37 36 32 34 39 36 25 21 21 25 26 24 25 28 29 30 30 32 32 30 28 28 28 29 28 30 31 33 33 32 32 33 33 33 32 32 32 32 29 26
33 32 40 39 37 35 35 37 36 24 21 22 26 24 25 27 30 33 35 35 34 31 31 31 28 27 28 27 31 30 32 33 33 32 33 33 34 30 31 31 32 31 28
36 40 40 39 36 34 35 36 32 22 21 26 25 26 28 31 34 36 36 35 33 30 30 30 28 24 27 28 29 29 31 33 33 33 33 33 34 31 30 31 30 33 30
44 44 36 35 36 35 36 36 30 24 23 27 27 28 30 32 35 36 33 32 30 27 26 28 27 24 22 27 30 31 30 32 34 34 33 34 35 32 32 33 33 32 34
49 44 44 40 36 37 34 38 35 27 26 28 29 29 30 33 33 33 34 34 32 29 26 27 24 23 21 22 26 32 33 32 32 33 33 34 35 33 33 35 33 33 32
50 47 48 43 44 36 33 34 37 32 29 30 31 30 28 31 32 33 35 36 33 33 33 29 27 26 24 23 23 27 32 34 34 34 35 34 34 35 36 38 35 31 31
47 51 50 50 49 37 37 32 35 35 32 31 32 30 28 31 30 38 33 35 33 33 31 29 28 28 28 27 26 24 27 32 36 35 35 34 30 33 34 37 36 33 31
45 53 49 50 49 42 40 37 33 36 33 32 32 32 30 32 32 42 35 35 33 35 30 29 30 30 31 29 26 24 25 28 32 35 36 36 33 31 32 35 35 33 32
52 54 51 48 47 44 37 39 35 38 34 31 32 31 32 34 34 39 46 42 35 34 30 31 30 30 28 25 24 24 24 23 28 31 34 34 36 34 31 33 33 32 32
56 52 50 45 46 43 41 40 34 36 33 31 30 30 33 34 39 43 42 38 38 36 32 31 31 29 27 26 25 24 23 24 25 27 31 32 36 37 33 32 32 31 31
49 46 39 37 43 42 43 41 33 34 32 29 28 29 34 34 38 41 46 43 39 38 35 35 32 27 26 26 26 26 26 25 28 26 29 30 33 36 35 34 33 32 32
47 45 38 34 39 40 44 43 33 33 31 27 27 28 34 33 39 40 44 44 43 39 38 37 32 30 28 27 26 24 25 26 30 27 27 28 31 32 33 37 37 34 33
49 43 36 36 38 41 44 39 32 33 33 27 27 29 33 34 37 43 44 44 43 40 39 37 34 35 34 31 29 28 25 25 28 28 25 27 30 33 32 32 33 33 33
51 46 39 38 36 41 39 34 34 34 35 30 29 31 32 32 37 43 45 47 45 42 41 38 36 34 34 33 32 30 31 28 28 28 26 26 28 32 33 33 33 30 30
50 49 36 37 35 39 33 31 32 34 32 31 32 33 34 36 40 44 45 47 46 45 45 40 37 36 34 31 28 28 28 29 29 26 28 29 27 29 32 35 33 33 31
49 42 35 34 33 35 29 27 30 31 28 30 33 37 39 39 42 44 45 46 46 45 43 40 39 37 34 32 30 30 27 26 28 28 27 28 30 29 31 32 33 34 35
43 39 37 28 35 29 27 27 29 29 28 31 36 37 37 38 40 42 44 44 43 41 42 41 39 34 31 29 30 29 24 27 26 25 26 27 28 27 28 30 31 31 33
39 32 34 33 35 27 25 28 27 27 30 34 35 36 35 36 39 41 43 40 41 37 34 28 25 23 22 20 21 20 24 24 24 23 24 25 25 25 26 27 28 28 31
42 35 30 32 31 25 25 26 26 28 33 33 32 32 33 35 38 38 38 38 34 29 30 27 24 22 21 20 17 17 19 23 23 25 24 23 27 27 24 25 27 28 28
38 29 25 27 25 23 23 24 26 31 32 31 28 29 32 32 30 33 34 31 27 26 23 20 19 16 15 14 15 14 15 15 16 19 26 25 25 26 27 27 25 27 27
21 22 23 24 21 19 22 25 28 29 28 26 28 28 28 28 30 29 27 24 22 18 14 12 9 6 6 9 10 13 14 16 16 15 22 25 23 26 28 26 25 24 28
19 19 21 19 17 19 22 25 26 27 24 27 26 24 25 28 28 23 20 15 12 12 11 10 9 7 4 6 6 8 10 16 10 12 19 22 23 24 26 26 23 24 26